SAULDORF Weather Reports


time (UTC)temp
C
wind
direction
speed
KPH
gust
KPH
rain 1hr
cm
rain 24hr
cm
rain mn
cm
humidity
%
barometer
mb
20260504203209 14 304 6.4 0.0 0.00 0.00 0.00 67 1011.1
20260504200209 15 22 11.3 0.0 0.00 0.00 0.00 65 1011.0
20260504193209 15 12 11.3 0.0 0.00 0.00 0.00 63 1010.8
20260504190209 15 5 12.9 0.0 0.00 0.00 0.00 61 1010.8
20260504183209 16 36 19.3 0.0 0.00 0.00 0.00 59 1011.1
20260504180214 17 273 12.9 0.0 0.00 0.00 0.00 55 1011.7
20260504173209 18 285 16.1 0.0 0.00 0.00 0.00 49 1011.2
20260504170210 19 331 14.5 0.0 0.00 0.00 0.00 46 1010.9
20260504160210 20 275 8.0 0.0 0.00 0.00 0.00 40 1010.8
20260504150210 20 327 12.9 0.0 0.00 0.00 0.00 42 1010.7
20260504140209 20 260 17.7 0.0 0.00 0.00 0.00 44 1010.9
20260504130215 21 124 6.4 0.0 0.00 0.00 0.00 36 1011.2
20260504120210 21 130 17.7 0.0 0.00 0.00 0.00 32 1011.5
20260504110210 20 139 20.9 0.0 0.00 0.00 0.00 35 1012.1
20260504100212 20 42 17.7 0.0 0.00 0.00 0.00 36 1012.5
20260504080210 18 90 9.7 0.0 0.00 0.00 0.00 51 1013.2
20260504070212 15 83 11.3 0.0 0.00 0.00 0.00 68 1013.5
20260504060212 10 91 1.6 0.0 0.00 0.00 0.00 83 1013.4
20260504050210 8 167 4.8 0.0 0.00 0.00 0.00 83 1013.5
20260504043211 8 44 3.2 0.0 0.00 0.00 0.00 83 1013.5
20260504040211 8 342 14.5 0.0 0.00 0.00 0.00 82 1013.7
20260504033211 8 327 3.2 0.0 0.00 0.00 0.00 80 1013.9
20260504030212 9 327 3.2 0.0 0.00 0.00 0.00 77 1013.9
20260504023211 10 327 6.4 0.0 0.00 0.00 0.00 76 1013.9
20260504020212 10 267 3.2 0.0 0.00 0.00 0.00 76 1014.1
20260504013211 10 267 1.6 0.0 0.00 0.00 0.00 76 1013.9
20260504010211 11 283 4.8 0.0 0.00 0.00 0.00 75 1014.1
20260504003210 11 275 6.4 0.0 0.00 0.00 0.00 74 1014.0
20260504000208 11 234 1.6 0.0 0.00 0.00 0.00 72 1014.2
20260503233209 11 234 3.2 0.0 0.00 0.00 0.00 72 1014.2
20260503230209 12 234 3.2 0.0 0.00 0.00 0.00 72 1014.4
20260503223210 12 234 4.8 0.0 0.00 0.00 0.00 69 1014.5
20260503213210 12 234 4.8 0.0 0.00 0.00 0.00 67 1014.3
20260503210211 12 234 6.4 0.0 0.00 0.00 0.00 66 1013.9